TimePST,TemperatureF,Dew PointF,Humidity,Sea Level PressureIn,VisibilityMPH,Wind Direction,Wind SpeedMPH,Gust SpeedMPH,PrecipitationIn,Events,Conditions,WindDirDegrees,DateUTC
12:53 AM,44.1,41.0,89,30.27,8.0,Calm,Calm,-,N/A,,Clear,0,2014-01-12 08:53:00
1:28 AM,43.0,39.9,89,30.27,6.0,Calm,Calm,-,N/A,,Mostly Cloudy,0,2014-01-12 09:28:00
1:40 AM,42.1,39.0,89,30.27,6.0,Calm,Calm,-,N/A,,Scattered Clouds,0,2014-01-12 09:40:00
1:53 AM,39.9,37.9,93,30.28,4.0,East,3.5,-,N/A,,Scattered Clouds,80,2014-01-12 09:53:00
2:00 AM,39.9,37.9,93,30.28,4.0,NNE,3.5,-,N/A,,Mostly Cloudy,30,2014-01-12 10:00:00
2:06 AM,42.1,39.9,92,30.28,8.0,North,3.5,-,N/A,,Scattered Clouds,10,2014-01-12 10:06:00
2:53 AM,41.0,39.0,93,30.28,6.0,ENE,3.5,-,N/A,,Partly Cloudy,70,2014-01-12 10:53:00
3:09 AM,37.0,36.0,96,30.28,6.0,NE,3.5,-,N/A,,Mostly Cloudy,50,2014-01-12 11:09:00
3:16 AM,39.9,37.0,89,30.27,8.0,East,3.5,-,N/A,,Mostly Cloudy,80,2014-01-12 11:16:00
3:37 AM,37.9,36.0,93,30.26,7.0,ENE,3.5,-,N/A,,Overcast,70,2014-01-12 11:37:00
3:44 AM,37.9,36.0,93,30.26,6.0,ENE,3.5,-,N/A,,Mostly Cloudy,70,2014-01-12 11:44:00
3:53 AM,37.0,36.0,96,30.26,7.0,Calm,Calm,-,N/A,,Partly Cloudy,0,2014-01-12 11:53:00
4:43 AM,37.9,36.0,93,30.27,1.8,West,4.6,-,N/A,,Mostly Cloudy,260,2014-01-12 12:43:00
4:49 AM,37.4,35.6,93,30.27,0.8,WNW,3.5,-,N/A,,Mist,290,2014-01-12 12:49:00
4:53 AM,37.9,36.0,93,30.28,0.8,NW,3.5,-,N/A,,Mostly Cloudy,320,2014-01-12 12:53:00
5:10 AM,39.9,39.0,97,30.29,0.5,Calm,Calm,-,N/A,Fog,Fog,0,2014-01-12 13:10:00
5:17 AM,41.0,39.0,93,30.29,0.5,Calm,Calm,-,N/A,Fog,Fog,0,2014-01-12 13:17:00
5:25 AM,39.9,37.9,93,30.29,0.2,Calm,Calm,-,N/A,Fog,Fog,0,2014-01-12 13:25:00
5:32 AM,39.9,37.9,93,30.30,0.2,SSW,3.5,-,N/A,Fog,Fog,210,2014-01-12 13:32:00
5:53 AM,39.0,37.9,96,30.31,0.2,Calm,Calm,-,N/A,Fog,Fog,0,2014-01-12 13:53:00
6:53 AM,39.9,39.0,97,30.32,0.2,ENE,3.5,-,N/A,Fog,Fog,70,2014-01-12 14:53:00
7:53 AM,39.9,39.0,97,30.35,0.2,Calm,Calm,-,N/A,Fog,Fog,0,2014-01-12 15:53:00
8:53 AM,42.1,39.9,92,30.38,0.1,West,4.6,-,N/A,Fog,Fog,280,2014-01-12 16:53:00
9:53 AM,44.1,43.0,96,30.40,0.2,Calm,Calm,-,N/A,Fog,Fog,0,2014-01-12 17:53:00
10:30 AM,45.0,44.1,97,30.39,1.0,SSE,3.5,-,N/A,,Mist,150,2014-01-12 18:30:00
10:34 AM,45.0,44.1,97,30.39,3.0,Calm,Calm,-,N/A,,Mostly Cloudy,0,2014-01-12 18:34:00
10:44 AM,46.0,44.1,93,30.38,8.0,Calm,Calm,-,N/A,,Scattered Clouds,0,2014-01-12 18:44:00
10:53 AM,46.0,44.1,93,30.39,9.0,WSW,3.5,-,N/A,,Partly Cloudy,250,2014-01-12 18:53:00
11:53 AM,55.0,44.1,67,30.35,10.0,WNW,5.8,-,N/A,,Clear,290,2014-01-12 19:53:00
12:53 PM,57.0,39.0,51,30.32,10.0,Calm,Calm,-,N/A,,Clear,0,2014-01-12 20:53:00
1:53 PM,61.0,33.1,35,30.31,10.0,North,10.4,-,N/A,,Clear,360,2014-01-12 21:53:00
2:53 PM,62.1,33.1,34,30.30,10.0,NNW,11.5,-,N/A,,Clear,340,2014-01-12 22:53:00
3:53 PM,62.1,28.0,28,30.31,10.0,North,12.7,-,N/A,,Clear,360,2014-01-12 23:53:00
4:53 PM,60.1,25.0,26,30.31,10.0,NNW,4.6,-,N/A,,Clear,340,2014-01-13 00:53:00
5:53 PM,59.0,24.1,26,30.32,10.0,North,4.6,-,N/A,,Clear,10,2014-01-13 01:53:00
6:53 PM,53.1,26.1,35,30.32,10.0,NNE,4.6,-,N/A,,Clear,30,2014-01-13 02:53:00
7:53 PM,50.0,27.0,41,30.33,10.0,Calm,Calm,-,N/A,,Clear,0,2014-01-13 03:53:00
8:53 PM,46.0,28.0,50,30.33,10.0,ENE,3.5,-,N/A,,Clear,70,2014-01-13 04:53:00
9:53 PM,48.0,28.9,48,30.35,10.0,East,3.5,-,N/A,,Clear,100,2014-01-13 05:53:00
10:53 PM,-9999,-9999,N/A,30.35,10.0,NE,8.1,-,N/A,,Clear,40,2014-01-13 06:53:00
11:53 PM,-9999,-9999,N/A,30.35,10.0,East,11.5,-,N/A,,Clear,80,2014-01-13 07:53:00